When you browse on this site, cookies collect data to enhance your experience and personalize the content and advertising you see.
Visit our Privacy Policy to learn more. By continuing to use the site, you agree to this use of cookies and data.
  • In Switzerland
  • List of Countries
  • For 7 days
  • Water Temperature
  • Weather Map
  • Weather Widgets
  • user-avatar
    Login

    Hourly Weather Zalaegerszeg

    Today, 5 April, Sunday

    Time Temperature Precipitation Wind Pressure Humidity
    00:00 +5°C° 0 mm 3 mps 756 mmHg 69%
    01:00 +4°C° 0 mm 3 mps 756 mmHg 70%
    02:00 +4°C° 0 mm 3 mps 756 mmHg 71%
    03:00 +3°C° 0 mm 3 mps 756 mmHg 72%
    04:00 +3°C° 0 mm 3 mps 756 mmHg 73%
    05:00 +4°C° 0 mm 3 mps 756 mmHg 70%
    06:00 +4°C° 0 mm 3 mps 757 mmHg 68%
    07:00 +5°C° 0 mm 3 mps 757 mmHg 65%
    08:00 +8°C° 0 mm 3 mps 757 mmHg 59%
    09:00 +10°C° 0 mm 3 mps 757 mmHg 53%
    10:00 +12°C° 0 mm 3 mps 758 mmHg 47%
    11:00 +13°C° 0 mm 3 mps 757 mmHg 46%
    12:00 +14°C° 0 mm 3 mps 757 mmHg 45%
    13:00 +17°C° 0 mm 3 mps 756 mmHg 44%
    14:00 +17°C° 0 mm 3 mps 756 mmHg 45%
    15:00 +17°C° 0 mm 3 mps 756 mmHg 45%
    16:00 +17°C° 0 mm 3 mps 756 mmHg 46%
    17:00 +14°C° 0 mm 3 mps 756 mmHg 53%
    18:00 +12°C° 0 mm 3 mps 756 mmHg 60%
    19:00 +10°C° 0 mm 2 mps 756 mmHg 67%
    20:00 +10°C° 0 mm 2 mps 757 mmHg 70%
    21:00 +9°C° 0 mm 2 mps 757 mmHg 73%
    22:00 +8°C° 0 mm 2 mps 757 mmHg 76%
    23:00 +8°C° 0 mm 2 mps 757 mmHg 77%

    Tomorrow, 6 April, Monday

    Time Temperature Precipitation Wind Pressure Humidity
    00:00 +7°C° 0 mm 2 mps 757 mmHg 78%
    01:00 +7°C° 0 mm 2 mps 757 mmHg 79%
    02:00 +7°C° 0 mm 2 mps 757 mmHg 81%
    03:00 +6°C° 0 mm 2 mps 757 mmHg 82%
    04:00 +7°C° 0 mm 1 mps 757 mmHg 84%
    05:00 +6°C° 0 mm 2 mps 758 mmHg 80%
    06:00 +7°C° 0 mm 2 mps 758 mmHg 77%
    07:00 +8°C° 0 mm 2 mps 758 mmHg 73%
    08:00 +10°C° 0 mm 3 mps 759 mmHg 62%
    09:00 +12°C° 0 mm 4 mps 759 mmHg 51%
    10:00 +14°C° 0 mm 5 mps 759 mmHg 40%
    11:00 +14°C° 0 mm 5 mps 759 mmHg 39%
    12:00 +15°C° 0 mm 5 mps 759 mmHg 38%
    13:00 +16°C° 0 mm 5 mps 758 mmHg 36%
    14:00 +16°C° 0 mm 5 mps 758 mmHg 37%
    15:00 +15°C° 0 mm 5 mps 758 mmHg 38%
    16:00 +15°C° 0 mm 5 mps 758 mmHg 39%
    17:00 +13°C° 0 mm 4 mps 758 mmHg 43%
    18:00 +11°C° 0 mm 3 mps 758 mmHg 47%
    19:00 +9°C° 0 mm 2 mps 759 mmHg 51%
    20:00 +9°C° 0 mm 2 mps 759 mmHg 54%
    21:00 +9°C° 0 mm 1 mps 760 mmHg 56%
    22:00 +8°C° 0 mm 1 mps 760 mmHg 59%
    23:00 +7°C° 0 mm 1 mps 760 mmHg 62%

    Day after tomorrow, 7 April, Tuesday

    Time Temperature Precipitation Wind Pressure Humidity
    00:00 +7°C° 0 mm 1 mps 760 mmHg 65%
    01:00 +6°C° 0 mm 1 mps 760 mmHg 67%
    02:00 +6°C° 0 mm 1 mps 760 mmHg 69%
    03:00 +6°C° 0 mm 1 mps 760 mmHg 70%
    04:00 +5°C° 0 mm 1 mps 760 mmHg 71%
    05:00 +6°C° 0 mm 1 mps 761 mmHg 67%
    06:00 +7°C° 0 mm 1 mps 761 mmHg 63%
    07:00 +8°C° 0 mm 1 mps 761 mmHg 59%
    08:00 +9°C° 0 mm 2 mps 761 mmHg 50%
    09:00 +12°C° 0 mm 2 mps 761 mmHg 41%
    10:00 +13°C° 0 mm 3 mps 761 mmHg 31%
    11:00 +14°C° 0 mm 3 mps 761 mmHg 31%
    12:00 +15°C° 0 mm 4 mps 761 mmHg 30%
    13:00 +17°C° 0 mm 4 mps 761 mmHg 30%
    14:00 +17°C° 0 mm 4 mps 760 mmHg 31%
    15:00 +17°C° 0 mm 3 mps 760 mmHg 33%
    16:00 +17°C° 0 mm 3 mps 759 mmHg 34%
    17:00 +15°C° 0 mm 2 mps 759 mmHg 41%
    18:00 +13°C° 0 mm 2 mps 760 mmHg 47%
    19:00 +11°C° 0 mm 1 mps 760 mmHg 53%
    20:00 +10°C° 0 mm 1 mps 760 mmHg 56%
    21:00 +10°C° 0 mm 1 mps 760 mmHg 58%
    22:00 +9°C° 0 mm 1 mps 760 mmHg 60%
    23:00 +8°C° 0 mm 1 mps 760 mmHg 62%

    8 April, Wednesday

    Time Temperature Precipitation Wind Pressure Humidity
    00:00 +8°C° 0 mm 1 mps 760 mmHg 63%
    01:00 +6°C° 0 mm 0 mps 760 mmHg 65%
    02:00 +6°C° 0 mm 0 mps 760 mmHg 66%
    03:00 +6°C° 0 mm 0 mps 760 mmHg 67%
    04:00 +5°C° 0 mm 0 mps 760 mmHg 69%
    05:00 +6°C° 0 mm 0 mps 760 mmHg 66%
    06:00 +8°C° 0 mm 0 mps 760 mmHg 63%
    07:00 +9°C° 0 mm 0 mps 760 mmHg 60%
    08:00 +12°C° 0 mm 1 mps 759 mmHg 53%
    09:00 +14°C° 0 mm 1 mps 759 mmHg 45%
    10:00 +16°C° 0 mm 2 mps 759 mmHg 37%
    11:00 +17°C° 0 mm 2 mps 758 mmHg 36%
    12:00 +18°C° 0 mm 2 mps 758 mmHg 34%
    13:00 +18°C° 0 mm 2 mps 757 mmHg 33%
    14:00 +18°C° 0 mm 2 mps 757 mmHg 33%
    15:00 +18°C° 0 mm 2 mps 756 mmHg 33%
    16:00 +18°C° 0 mm 2 mps 756 mmHg 34%
    17:00 +16°C° 0 mm 2 mps 755 mmHg 40%
    18:00 +14°C° 0 mm 2 mps 755 mmHg 46%
    19:00 +12°C° 0 mm 1 mps 755 mmHg 53%
    20:00 +11°C° 0 mm 1 mps 755 mmHg 55%
    21:00 +11°C° 0 mm 1 mps 755 mmHg 58%
    22:00 +10°C° 0 mm 1 mps 756 mmHg 61%
    23:00 +9°C° 0 mm 1 mps 755 mmHg 63%

    9 April, Thursday

    Time Temperature Precipitation Wind Pressure Humidity
    00:00 +9°C° 0 mm 1 mps 755 mmHg 65%
    01:00 +8°C° 0 mm 1 mps 755 mmHg 67%
    02:00 +8°C° 0 mm 1 mps 755 mmHg 68%
    03:00 +8°C° 0 mm 1 mps 754 mmHg 70%
    04:00 +7°C° 0 mm 1 mps 754 mmHg 71%
    05:00 +8°C° 0 mm 1 mps 754 mmHg 68%
    06:00 +9°C° 0 mm 1 mps 754 mmHg 66%
    07:00 +10°C° 0 mm 1 mps 754 mmHg 63%
    08:00 +13°C° 0 mm 1 mps 754 mmHg 55%
    09:00 +15°C° 0 mm 1 mps 754 mmHg 48%
    10:00 +17°C° 0 mm 2 mps 754 mmHg 40%
    11:00 +18°C° 0 mm 2 mps 754 mmHg 37%
    12:00 +19°C° 0 mm 2 mps 753 mmHg 33%
    13:00 +21°C° 0 mm 1 mps 753 mmHg 30%
    14:00 +21°C° 0 mm 1 mps 753 mmHg 30%
    15:00 +21°C° 0 mm 1 mps 752 mmHg 29%
    16:00 +21°C° 0 mm 1 mps 752 mmHg 29%
    17:00 +19°C° 0 mm 1 mps 752 mmHg 35%
    18:00 +16°C° 0 mm 1 mps 752 mmHg 41%
    19:00 +14°C° 0 mm 1 mps 752 mmHg 47%
    20:00 +13°C° 0 mm 1 mps 752 mmHg 49%
    21:00 +13°C° 0 mm 1 mps 753 mmHg 51%
    22:00 +12°C° 0 mm 1 mps 753 mmHg 52%
    23:00 +11°C° 0 mm 1 mps 753 mmHg 54%

    10 April, Friday

    Time Temperature Precipitation Wind Pressure Humidity
    00:00 +11°C° 0 mm 1 mps 753 mmHg 56%
    01:00 +10°C° 0 mm 2 mps 753 mmHg 58%
    02:00 +9°C° 0 mm 2 mps 753 mmHg 60%
    03:00 +9°C° 0 mm 2 mps 753 mmHg 63%
    04:00 +8°C° 0 mm 2 mps 753 mmHg 65%
    05:00 +9°C° 0 mm 3 mps 753 mmHg 66%
    06:00 +10°C° 0 mm 3 mps 754 mmHg 67%
    07:00 +11°C° 0 mm 4 mps 754 mmHg 67%
    08:00 +13°C° 0 mm 5 mps 754 mmHg 64%
    09:00 +15°C° 0 mm 5 mps 754 mmHg 60%
    10:00 +16°C° 0 mm 6 mps 754 mmHg 56%
    11:00 +17°C° 0 mm 6 mps 754 mmHg 54%
    12:00 +17°C° 0 mm 6 mps 753 mmHg 51%
    13:00 +19°C° 0 mm 6 mps 753 mmHg 48%
    14:00 +17°C° 0 mm 5 mps 753 mmHg 47%
    15:00 +17°C° 0 mm 5 mps 753 mmHg 46%
    16:00 +17°C° 0 mm 5 mps 752 mmHg 45%
    17:00 +15°C° 0 mm 4 mps 752 mmHg 50%
    18:00 +13°C° 0 mm 3 mps 753 mmHg 55%
    19:00 +12°C° 0 mm 2 mps 753 mmHg 60%
    20:00 +10°C° 0 mm 2 mps 753 mmHg 61%
    21:00 +10°C° 0 mm 1 mps 753 mmHg 62%
    22:00 +9°C° 0 mm 1 mps 754 mmHg 63%
    23:00 +9°C° 0 mm 1 mps 754 mmHg 64%
    Show more